Overview Statistics Trail Chart Weather Telemetry Raw packets
 

This is the latest recevied weather packets stored in our database for station/object KE8WMS. If no packets are shown the sender has not sent any weather packets the latest 10 day(s).

<< 76 77 78 79 80 81 82 >>
Time Temp. Humidity Pressure Rain* Wind** Luminosity Snow
1777291385 9.44° C 86% 1017.5 hPa 0 mm - 78 W/m² -
1777291081 9.44° C 86% 1017.8 hPa 0 mm - 75 W/m² -
1777290778 9.44° C 86% 1017.7 hPa 0 mm - 69 W/m² -
1777290475 9.44° C 86% 1017.6 hPa 0 mm - 63 W/m² -
1777290171 8.89° C 87% 1017.9 hPa 0 mm - 56 W/m² -
1777289868 8.89° C 88% 1017.7 hPa 0 mm - 51 W/m² -
1777289564 8.33° C 89% 1017.7 hPa 0 mm - 46 W/m² -
1777289259 7.78° C 92% 1017.9 hPa 0 mm - 41 W/m² -
1777288957 7.78° C 95% 1017.6 hPa 0 mm - 38 W/m² -
1777288653 7.22° C 97% 1017.5 hPa 0 mm - 35 W/m² -
1777288350 6.67° C 99% 1017.9 hPa 0 mm - 30 W/m² -
1777288046 6.67° C 99% 1017.7 hPa 0 mm - 26 W/m² -
1777287744 6.67° C 99% 1017.7 hPa 0 mm - 21 W/m² -
1777287440 6.11° C 99% 1017.8 hPa 0 mm - 18 W/m² -
1777287135 6.11° C 99% 1017.6 hPa 0 mm - 15 W/m² -
1777286832 5.56° C 99% 1017.7 hPa 0 mm - 11 W/m² -
1777286530 5.56° C 99% 1017.5 hPa 0 mm - 7 W/m² -
1777286227 5.56° C 99% 1016.9 hPa 0 mm - 5 W/m² -
1777285924 5.56° C 99% 1017.7 hPa 0 mm - 3 W/m² -
1777285623 5.56° C 99% 1017.9 hPa 0 mm - 1 W/m² -
1777285319 5.56° C 99% 1018 hPa 0 mm - 1 W/m² -
1777285015 5.56° C 99% 1017.9 hPa 0 mm - 0 W/m² -
1777284713 5.56° C 99% 1018.2 hPa 0 mm - 0 W/m² -
1777284410 6.11° C 99% 1017.9 hPa 0 mm - 0 W/m² -
1777284106 6.11° C 99% 1017.9 hPa 0 mm - 0 W/m² -

* Rain latest hour (hover to see other rain measurements)
** Current wind speed in m/s (hover to see current wind gust speed)